Torna al catalogo

SARI-1

AttivoScienzaSSO
NORAD 66668·PAYLOAD·🇬🇷 Greece

Lanciato Nov 28, 2025 da Vandenberg Space Force Base

Loading…

Prossimi Passaggi (prossime 24 ore)

TLE

AggiornatoSource: Space-Track

Epoca: Sep 13, 2026, 16:39 UTC

1 66668U 25276C   26256.69387315  .00025963  00000-0  82412-3 0  9992
2 66668  97.3976 330.5895 0006358  62.2140 297.9746 15.32630230 44024

Traccia SARI-1 in tempo reale con AllMySat

Download on the App Store